Погода в Кояне

Южная Корея     37°38′16″N   126°49′53″E
темп.,
°C
ветер,
м/с
пор.,
м/с
влажн.,
%
обл.,
%
осадки,
мм/ч
давл.,
гПа
погр.,
м
16 мая, вс
вс1600:00+20юв1293100 0.3 1005124
03:00+19в1197100 4.9 100298
06:00+20ссв1299100 10.6 1001131
09:00+19зюз0298100 25.5 1001216
12:00+17всв1396100 12.3 1001282
15:00+17ссв2491100 23.1 1000384
18:00+14ссв4693100 6.4 1000282
21:00+14ссв3491100 7.1 1002234
17 мая, пн
пн1700:00+13ссв3591100 0.3 1004244
03:00+14ссв2289100 0.4 1004195
06:00+13ссв2486100 0.0 1005227
09:00+14с2384100 0.1 1006260
12:00+14ссв3485100 1.3 1008442
15:00+15ссв3380100 1.4 1008559
18:00+16ссв118195 0.0 1009419
21:00+15зсз118498 0.0 1011148
18 мая, вт
вт1800:00+14св1189100 0.0 101224
03:00+14ссз1190100 0.0 101165
06:00+13зюз009176 0.0 101242
09:00+18ююз117310 0.0 1013551
12:00+22зюз22523 0.0 10111025
15:00+23зсз4449100 0.0 10111077
18:00+21юз435497 0.0 1011519
21:00+18зюз1163100 0.0 1012145
19 мая, ср
ср1900:00+16ююз11710 0.0 101345
03:00+15ююз11751 0.0 101330
06:00+15юв11754 0.0 101414
09:00+20ююз12490 0.0 1014436
12:00+25зюз223499 0.0 1013924
15:00+25з4332100 0.0 10121046
18:00+23сз2237100 0.0 1012475
21:00+20зсз1247100 0.0 101363
20 мая, чт
чт2000:00+19ссз1252100 0.0 101270
03:00+18ссв0055100 0.0 101119
06:00+18ююз1259100 0.0 101151
09:00+20юз2245100 0.0 1010379
12:00+24ююв3535100 0.0 10091354
15:00+23ююз3444100 0.0 10071132
18:00+23вюв2340100 0.0 10061150
21:00+20з1155100 0.0 1006327